Location: Newark
(48.8833°N, 0.9236°W)
Time: 03:17:07
(UTC+00:00)

OTV 5 (USA 277) - Pass Details

Date: 31 October 2019
Orbit: 310 x 324 km, 54.5° (Epoch: 17 October)

Event Time Altitude Azimuth Distance (km) Brightness Sun altitude
Rises 17:45:09 0° 216° (SW) 2,050 ? -10.3°
Reaches altitude 10° 17:47:13 10° 205° (SSW) 1,226 ? -10.6°
Maximum altitude 17:49:40 30° 141° (SE) 604 ? -11.0°
Enters shadow 17:50:56 20° 94° (E) 821 ? -11.2°
